Time,TemperatureF,DewpointF,PressureIn,WindDirection,WindDirectionDegrees,WindSpeedMPH,WindSpeedGustMPH,Humidity,HourlyPrecipIn,Conditions,Clouds,dailyrainin,SolarRadiationWatts/m^2,SoftwareType,DateUTC
2013-03-27 00:02:00,34.0,23.0,-100.00,North,349,0.0,7.0,65,0.00,,,0.00,0.000000,,2013-03-27 06:02:00,
2013-03-27 00:12:00,34.0,23.0,-100.00,North,349,0.0,7.0,65,0.00,,,0.00,0.000000,,2013-03-27 06:12:00,
2013-03-27 00:22:00,34.0,23.0,-100.00,North,349,0.0,7.0,65,0.00,,,0.00,0.000000,,2013-03-27 06:22:00,
2013-03-27 00:53:00,32.0,23.0,-100.00,South,173,0.0,4.0,70,0.00,,,0.00,0.000000,,2013-03-27 06:53:00,
2013-03-27 01:02:00,32.0,23.0,-100.00,South,173,0.0,4.0,70,0.00,,,0.00,0.000000,,2013-03-27 07:02:00,
2013-03-27 01:12:00,32.0,23.0,-100.00,South,173,0.0,4.0,70,0.00,,,0.00,0.000000,,2013-03-27 07:12:00,
2013-03-27 01:22:00,32.0,23.0,-100.00,South,173,0.0,4.0,70,0.00,,,0.00,0.000000,,2013-03-27 07:22:00,
2013-03-27 01:53:00,30.0,22.0,-100.00,SSW,192,0.0,3.0,72,0.00,,,0.00,0.000000,,2013-03-27 07:53:00,
2013-03-27 02:02:00,30.0,22.0,-100.00,SSW,192,0.0,3.0,72,0.00,,,0.00,0.000000,,2013-03-27 08:02:00,
2013-03-27 02:12:00,30.0,22.0,-100.00,SSW,192,0.0,3.0,72,0.00,,,0.00,0.000000,,2013-03-27 08:12:00,
2013-03-27 02:22:00,30.0,22.0,-100.00,SSW,192,0.0,3.0,72,0.00,,,0.00,0.000000,,2013-03-27 08:22:00,
2013-03-27 02:52:00,28.0,22.0,-100.00,South,187,0.0,0.0,79,0.00,,,0.00,0.000000,,2013-03-27 08:52:00,
2013-03-27 03:01:00,28.0,22.0,-100.00,South,187,0.0,0.0,79,0.00,,,0.00,0.000000,,2013-03-27 09:01:00,
2013-03-27 03:11:00,28.0,22.0,-100.00,South,187,0.0,0.0,79,0.00,,,0.00,0.000000,,2013-03-27 09:11:00,
2013-03-27 03:22:00,28.0,22.0,-100.00,South,187,0.0,0.0,79,0.00,,,0.00,0.000000,,2013-03-27 09:22:00,
2013-03-27 03:52:00,28.0,22.0,-100.00,South,178,0.0,2.0,79,0.00,,,0.00,0.000000,,2013-03-27 09:52:00,
2013-03-27 04:02:00,28.0,22.0,-100.00,South,178,0.0,2.0,79,0.00,,,0.00,0.000000,,2013-03-27 10:02:00,
2013-03-27 04:12:00,28.0,22.0,-100.00,South,178,0.0,2.0,79,0.00,,,0.00,0.000000,,2013-03-27 10:12:00,
2013-03-27 04:22:00,28.0,22.0,-100.00,South,178,0.0,2.0,79,0.00,,,0.00,0.000000,,2013-03-27 10:22:00,
2013-03-27 04:53:00,27.0,22.0,-100.00,SSW,204,0.0,0.0,81,0.00,,,0.00,0.000000,,2013-03-27 10:53:00,
2013-03-27 05:02:00,27.0,22.0,-100.00,SSW,204,0.0,0.0,81,0.00,,,0.00,0.000000,,2013-03-27 11:02:00,
2013-03-27 05:12:00,27.0,22.0,-100.00,SSW,204,0.0,0.0,81,0.00,,,0.00,0.000000,,2013-03-27 11:12:00,
2013-03-27 05:22:00,27.0,22.0,-100.00,SSW,204,0.0,0.0,81,0.00,,,0.00,0.000000,,2013-03-27 11:22:00,
2013-03-27 05:52:00,25.0,22.0,-100.00,West,278,0.0,0.0,88,0.00,,,0.00,0.000000,,2013-03-27 11:52:00,
2013-03-27 06:02:00,25.0,22.0,-100.00,West,278,0.0,0.0,88,0.00,,,0.00,0.000000,,2013-03-27 12:02:00,
2013-03-27 06:12:00,25.0,22.0,-100.00,West,278,0.0,0.0,88,0.00,,,0.00,0.000000,,2013-03-27 12:12:00,
2013-03-27 06:22:00,25.0,22.0,-100.00,West,278,0.0,0.0,88,0.00,,,0.00,0.000000,,2013-03-27 12:22:00,
2013-03-27 06:52:00,25.0,22.0,-100.00,WSW,241,0.0,0.0,87,0.00,,,0.00,0.000000,,2013-03-27 12:52:00,
2013-03-27 07:02:00,25.0,22.0,-100.00,WSW,241,0.0,0.0,87,0.00,,,0.00,0.000000,,2013-03-27 13:02:00,
2013-03-27 07:12:00,25.0,22.0,-100.00,WSW,241,0.0,0.0,87,0.00,,,0.00,0.000000,,2013-03-27 13:12:00,
2013-03-27 07:22:00,25.0,22.0,-100.00,WSW,241,0.0,0.0,87,0.00,,,0.00,0.000000,,2013-03-27 13:22:00,
2013-03-27 07:53:00,24.0,21.0,-100.00,NE,56,0.0,0.0,87,0.00,,,0.00,0.000000,,2013-03-27 13:53:00,
2013-03-27 08:02:00,24.0,21.0,-100.00,NE,56,0.0,0.0,87,0.00,,,0.00,0.000000,,2013-03-27 14:02:00,
2013-03-27 08:11:00,24.0,21.0,-100.00,NE,56,0.0,0.0,87,0.00,,,0.00,0.000000,,2013-03-27 14:11:00,
2013-03-27 08:22:00,24.0,21.0,-100.00,NE,56,0.0,0.0,87,0.00,,,0.00,0.000000,,2013-03-27 14:22:00,
2013-03-27 08:52:00,25.0,21.0,-100.00,ESE,103,0.0,0.0,85,0.00,,,0.00,8.000000,,2013-03-27 14:52:00,
2013-03-27 09:02:00,25.0,21.0,-100.00,ESE,103,0.0,0.0,85,0.00,,,0.00,8.000000,,2013-03-27 15:02:00,
2013-03-27 09:12:00,25.0,21.0,-100.00,ESE,103,0.0,0.0,85,0.00,,,0.00,8.000000,,2013-03-27 15:12:00,
2013-03-27 09:22:00,25.0,21.0,-100.00,ESE,103,0.0,0.0,85,0.00,,,0.00,8.000000,,2013-03-27 15:22:00,
2013-03-27 09:52:00,30.0,23.0,-100.00,NW,324,0.0,0.0,75,0.00,,,0.00,104.000000,,2013-03-27 15:52:00,
2013-03-27 10:02:00,30.0,23.0,-100.00,NW,324,0.0,0.0,75,0.00,,,0.00,104.000000,,2013-03-27 16:02:00,
2013-03-27 10:12:00,30.0,23.0,-100.00,NW,324,0.0,0.0,75,0.00,,,0.00,104.000000,,2013-03-27 16:12:00,
2013-03-27 10:22:00,30.0,23.0,-100.00,NW,324,0.0,0.0,75,0.00,,,0.00,104.000000,,2013-03-27 16:22:00,
2013-03-27 12:02:00,37.0,25.0,-100.00,North,7,4.0,6.0,62,-99.99,,,0.00,374.000000,,2013-03-27 18:02:00,
2013-03-27 12:12:00,37.0,25.0,-100.00,North,7,4.0,6.0,62,-99.99,,,0.00,374.000000,,2013-03-27 18:12:00,
2013-03-27 12:22:00,37.0,25.0,-100.00,North,7,4.0,6.0,62,-99.99,,,0.00,374.000000,,2013-03-27 18:22:00,
2013-03-27 12:53:00,44.0,24.0,-100.00,North,359,5.0,7.0,45,0.00,,,0.00,436.000000,,2013-03-27 18:53:00,
2013-03-27 13:02:00,44.0,24.0,-100.00,North,359,5.0,7.0,45,0.00,,,0.00,436.000000,,2013-03-27 19:02:00,
2013-03-27 13:12:00,44.0,24.0,-100.00,North,359,5.0,7.0,45,0.00,,,0.00,436.000000,,2013-03-27 19:12:00,
2013-03-27 13:21:00,44.0,24.0,-100.00,North,359,5.0,7.0,45,0.00,,,0.00,436.000000,,2013-03-27 19:21:00,
2013-03-27 13:52:00,51.0,26.0,-100.00,North,8,5.0,9.0,38,0.00,,,0.00,635.000000,,2013-03-27 19:52:00,
2013-03-27 14:02:00,51.0,26.0,-100.00,North,8,5.0,9.0,38,0.00,,,0.00,635.000000,,2013-03-27 20:02:00,
2013-03-27 14:12:00,51.0,26.0,-100.00,North,8,5.0,9.0,38,0.00,,,0.00,635.000000,,2013-03-27 20:12:00,
2013-03-27 14:22:00,51.0,26.0,-100.00,North,8,5.0,9.0,38,0.00,,,0.00,635.000000,,2013-03-27 20:22:00,
2013-03-27 14:52:00,53.0,23.0,-100.00,North,357,4.0,11.0,31,0.00,,,-99.99,493.000000,,2013-03-27 20:52:00,
2013-03-27 15:02:00,53.0,23.0,-100.00,North,357,4.0,11.0,31,0.00,,,-99.99,493.000000,,2013-03-27 21:02:00,
2013-03-27 15:12:00,53.0,23.0,-100.00,North,357,4.0,11.0,31,0.00,,,-99.99,493.000000,,2013-03-27 21:12:00,
2013-03-27 15:22:00,53.0,23.0,-100.00,North,357,4.0,11.0,31,0.00,,,-99.99,493.000000,,2013-03-27 21:22:00,
2013-03-27 15:52:00,57.0,23.0,-100.00,North,352,5.0,11.0,27,0.00,,,0.00,652.000000,,2013-03-27 21:52:00,
2013-03-27 16:02:00,57.0,23.0,-100.00,North,352,5.0,11.0,27,0.00,,,0.00,652.000000,,2013-03-27 22:02:00,
2013-03-27 16:12:00,57.0,23.0,-100.00,North,352,5.0,11.0,27,0.00,,,0.00,652.000000,,2013-03-27 22:12:00,
2013-03-27 16:23:00,57.0,23.0,-100.00,North,352,5.0,11.0,27,0.00,,,0.00,652.000000,,2013-03-27 22:23:00,
2013-03-27 16:52:00,54.0,22.0,-100.00,NNW,339,7.0,12.0,28,0.00,,,0.00,347.000000,,2013-03-27 22:52:00,
2013-03-27 17:02:00,54.0,22.0,-100.00,NNW,339,7.0,12.0,28,0.00,,,0.00,347.000000,,2013-03-27 23:02:00,
2013-03-27 17:12:00,54.0,22.0,-100.00,NNW,339,7.0,12.0,28,0.00,,,0.00,347.000000,,2013-03-27 23:12:00,
2013-03-27 17:22:00,54.0,22.0,-100.00,NNW,339,7.0,12.0,28,0.00,,,0.00,347.000000,,2013-03-27 23:22:00,
2013-03-27 17:52:00,53.0,24.0,-100.00,SW,221,9.0,13.0,32,0.00,,,0.00,518.000000,,2013-03-27 23:52:00,
2013-03-27 18:02:00,53.0,24.0,-100.00,SW,221,9.0,13.0,32,0.00,,,0.00,518.000000,,2013-03-28 00:02:00,
2013-03-27 18:12:00,53.0,24.0,-100.00,SW,221,9.0,13.0,32,0.00,,,0.00,518.000000,,2013-03-28 00:12:00,
2013-03-27 18:22:00,53.0,24.0,-100.00,SW,221,9.0,13.0,32,0.00,,,0.00,518.000000,,2013-03-28 00:22:00,